EW6753 Weather Reports


Display with metric or nautical units.
time (UTC)temp
F
wind
direction
speed
MPH
gust
MPH
rain 1hr
in
rain 24hr
in
rain mn
in
humidity
%
barometer
mb
20240305003502 35 0 0.0 0.0 0.00 0.00 0.00 56 1017.9
20240305003004 36 0 0.0 0.0 0.00 0.00 0.00 55 1017.9
20240305002502 36 355 0.0 3.0 0.00 0.00 0.00 54 1017.6
20240305002002 36 348 1.0 3.0 0.00 0.00 0.00 54 1017.6
20240305001502 36 343 1.0 3.0 0.00 0.00 0.00 54 1017.5
20240305001002 37 348 1.0 3.0 0.00 0.00 0.00 53 1017.4
20240305000503 37 357 1.0 4.0 0.00 0.00 0.00 53 1017.4
20240305000003 38 1 2.0 4.0 0.00 0.00 0.00 52 1017.4
20240304235503 38 3 1.0 5.0 0.00 0.00 0.00 52 1017.4
20240304235002 38 2 1.0 5.0 0.00 0.00 0.00 52 1017.4
20240304234502 38 358 2.0 5.0 0.00 0.00 0.00 51 1017.4
20240304234002 39 354 2.0 8.0 0.00 0.00 0.00 51 1017.4
20240304233503 39 340 2.0 8.0 0.00 0.00 0.00 50 1017.6
20240304233003 39 314 2.0 8.0 0.00 0.00 0.00 51 1017.6
20240304232524 39 319 3.0 8.0 0.00 0.00 0.00 51 1017.5
20240304232002 39 327 2.0 7.0 0.00 0.00 0.00 51 1017.4
20240304231502 39 323 2.0 8.0 0.00 0.00 0.00 52 1017.4
20240304231003 39 309 3.0 8.0 0.00 0.00 0.00 52 1017.4
20240304230523 39 308 3.0 8.0 0.00 0.00 0.00 52 1017.3
20240304230003 39 306 3.0 6.0 0.00 0.00 0.00 51 1017.3
20240304225502 39 311 2.0 8.0 0.00 0.00 0.00 51 1017.3
20240304225002 39 314 2.0 8.0 0.00 0.00 0.00 51 1017.2
20240304224503 39 309 2.0 7.0 0.00 0.00 0.00 51 1017.2
20240304224002 39 304 2.0 7.0 0.00 0.00 0.00 51 1017.3
20240304223523 39 311 2.0 7.0 0.00 0.00 0.00 51 1017.2
20240304223002 39 301 3.0 8.0 0.00 0.00 0.00 51 1017.2
20240304222523 39 293 3.0 8.0 0.00 0.00 0.00 51 1017.2
20240304222003 39 326 2.0 5.0 0.00 0.00 0.00 52 1017.2
20240304221503 39 335 2.0 4.0 0.00 0.00 0.00 51 1017.0
20240304221002 39 326 2.0 5.0 0.00 0.00 0.00 51 1016.9
20240304220502 39 332 2.0 6.0 0.00 0.00 0.00 51 1017.0
20240304220003 39 313 2.0 6.0 0.00 0.00 0.00 50 1017.2
20240304215503 39 291 3.0 6.0 0.00 0.00 0.00 50 1017.2
20240304215002 39 309 3.0 6.0 0.00 0.00 0.00 51 1017.1
20240304214502 39 344 2.0 4.0 0.00 0.00 0.00 50 1017.0
20240304214002 39 307 2.0 7.0 0.00 0.00 0.00 49 1017.1
20240304213503 39 284 3.0 7.0 0.00 0.00 0.00 51 1017.1
20240304213003 39 293 2.0 7.0 0.00 0.00 0.00 50 1017.0
20240304212502 39 303 2.0 7.0 0.00 0.00 0.00 51 1017.0
20240304212002 39 307 2.0 7.0 0.00 0.00 0.00 50 1016.9
20240304211502 39 307 2.0 6.0 0.00 0.00 0.00 51 1016.8
20240304211003 39 293 2.0 6.0 0.00 0.00 0.00 51 1016.8
20240304210503 39 300 2.0 6.0 0.00 0.00 0.00 50 1017.0
20240304210024 39 323 2.0 6.0 0.00 0.00 0.00 50 1017.0
20240304205502 39 326 2.0 4.0 0.00 0.00 0.00 50 1016.9
20240304205023 39 318 2.0 5.0 0.00 0.00 0.00 49 1016.9
20240304204503 39 297 2.0 5.0 0.00 0.00 0.00 50 1016.7
20240304204023 39 293 2.0 4.0 0.00 0.00 0.00 49 1016.7
20240304203524 39 295 3.0 7.0 0.00 0.00 0.00 50 1016.6
20240304203003 39 297 3.0 9.0 0.00 0.00 0.00 50 1016.5
20240304202503 39 307 2.0 9.0 0.00 0.00 0.00 50 1016.4
20240304202003 38 351 2.0 7.0 0.00 0.00 0.00 50 1016.3
20240304201502 39 352 2.0 7.0 0.00 0.00 0.00 50 1016.4
20240304201003 39 299 3.0 8.0 0.00 0.00 0.00 50 1016.5
20240304200503 38 294 3.0 8.0 0.00 0.00 0.00 52 1016.6
20240304200003 38 299 2.0 4.0 0.00 0.00 0.00 52 1016.6
20240304195502 38 298 2.0 7.0 0.00 0.00 0.00 52 1016.7
20240304195004 38 308 2.0 7.0 0.00 0.00 0.00 51 1016.7
20240304194523 38 314 2.0 5.0 0.00 0.00 0.00 51 1016.8
20240304194002 38 295 3.0 6.0 0.00 0.00 0.00 52 1016.8
20240304193503 38 303 2.0 6.0 0.00 0.00 0.00 52 1016.8
20240304193003 37 354 1.0 4.0 0.00 0.00 0.00 53 1016.8
20240304192502 37 303 1.0 6.0 0.00 0.00 0.00 52 1016.8
20240304192002 37 305 2.0 6.0 0.00 0.00 0.00 54 1016.8
20240304191502 38 304 2.0 8.0 0.00 0.00 0.00 53 1017.0
20240304191003 37 303 2.0 8.0 0.00 0.00 0.00 54 1017.0
20240304190502 37 288 2.0 6.0 0.00 0.00 0.00 52 1017.0
20240304190002 37 284 2.0 4.0 0.00 0.00 0.00 53 1017.1
20240304185503 37 323 2.0 5.0 0.00 0.00 0.00 55 1017.1
20240304185003 36 323 2.0 5.0 0.00 0.00 0.00 54 1017.1
20240304184504 36 298 1.0 7.0 0.00 0.00 0.00 55 1017.1
20240304184003 36 312 1.0 7.0 0.00 0.00 0.00 56 1017.1
20240304183503 36 330 1.0 4.0 0.00 0.00 0.00 55 1017.2
20240304183003 36 344 1.0 4.0 0.00 0.00 0.00 57 1017.3
20240304182503 36 353 1.0 4.0 0.00 0.00 0.00 55 1017.4
20240304182003 36 3 1.0 4.0 0.00 0.00 0.00 57 1017.5
20240304181502 35 337 1.0 5.0 0.00 0.00 0.00 56 1017.7
20240304181002 36 317 2.0 8.0 0.00 0.00 0.00 56 1017.7
20240304180503 35 331 2.0 8.0 0.00 0.00 0.00 58 1017.7
20240304180003 35 337 1.0 3.0 0.00 0.00 0.00 57 1017.7
20240304175523 35 298 0.0 3.0 0.00 0.00 0.00 58 1017.8
20240304175002 35 289 1.0 7.0 0.00 0.00 0.00 58 1017.7
20240304174502 35 286 2.0 7.0 0.00 0.00 0.00 58 1017.6
20240304174024 35 285 2.0 4.0 0.00 0.00 0.00 59 1017.6
20240304173503 35 280 3.0 7.0 0.00 0.00 0.00 59 1017.5
20240304173024 35 283 4.0 8.0 0.00 0.00 0.00 59 1017.4
20240304172502 35 284 4.0 8.0 0.00 0.00 0.00 58 1017.3
20240304172002 35 290 4.0 8.0 0.00 0.00 0.00 58 1017.2
20240304171503 35 299 3.0 8.0 0.00 0.00 0.00 59 1017.1
20240304171024 35 300 3.0 10.0 0.00 0.00 0.00 60 1017.0
20240304170503 35 313 4.0 10.0 0.00 0.00 0.00 59 1017.2
20240304170003 35 318 3.0 9.0 0.00 0.00 0.00 58 1017.1
20240304165502 35 312 4.0 9.0 0.00 0.00 0.00 60 1016.8
20240304165003 35 309 4.0 8.0 0.00 0.00 0.00 59 1017.0
20240304164504 35 301 4.0 9.0 0.00 0.00 0.00 60 1017.1
20240304164002 35 302 4.0 11.0 0.00 0.00 0.00 60 1017.1
20240304163502 35 292 5.0 11.0 0.00 0.00 0.00 60 1016.9
20240304163023 35 288 6.0 11.0 0.00 0.00 0.00 60 1016.8
20240304162502 35 295 6.0 12.0 0.00 0.00 0.00 59 1016.7
20240304162002 35 301 4.0 12.0 0.00 0.00 0.00 59 1016.7
20240304161503 35 309 4.0 7.0 0.00 0.00 0.00 60 1016.7
20240304161002 36 319 3.0 8.0 0.00 0.00 0.00 59 1016.8
20240304160502 36 320 3.0 8.0 0.00 0.00 0.00 60 1016.7
20240304160002 36 299 3.0 8.0 0.00 0.00 0.00 62 1016.8
20240304155503 36 287 3.0 8.0 0.00 0.00 0.00 64 1016.8
20240304155003 36 281 4.0 7.0 0.00 0.00 0.00 64 1016.8
20240304154503 35 281 3.0 7.0 0.00 0.00 0.00 64 1016.9
20240304154003 35 277 3.0 7.0 0.00 0.00 0.00 63 1017.0
20240304153503 36 275 3.0 7.0 0.00 0.00 0.00 63 1017.0
20240304153002 36 288 3.0 6.0 0.00 0.00 0.00 64 1017.1
20240304152503 36 292 4.0 8.0 0.00 0.00 0.00 65 1016.9
20240304152003 35 291 4.0 9.0 0.00 0.00 0.00 65 1017.0
20240304151503 35 290 4.0 9.0 0.00 0.00 0.00 65 1017.0
20240304151002 35 285 2.0 7.0 0.00 0.00 0.00 65 1017.1
20240304150524 36 268 1.0 4.0 0.00 0.00 0.00 66 1017.2
20240304150003 35 228 0.0 3.0 0.00 0.00 0.00 66 1017.2
20240304145503 35 201 1.0 3.0 0.00 0.00 0.00 66 1017.2
20240304145002 35 236 1.0 3.0 0.00 0.00 0.00 66 1017.2
20240304144502 36 278 1.0 3.0 0.00 0.00 0.00 66 1017.2
20240304144002 35 278 1.0 3.0 0.00 0.00 0.00 66 1017.2
20240304143503 35 284 1.0 6.0 0.00 0.00 0.00 65 1017.2
20240304143024 35 276 2.0 6.0 0.00 0.00 0.00 66 1017.1
20240304142502 35 256 2.0 6.0 0.00 0.00 0.00 65 1017.1
20240304142004 35 240 1.0 4.0 0.00 0.00 0.00 65 1017.0
20240304141502 35 241 1.0 4.0 0.00 0.00 0.00 66 1017.0
20240304141002 35 241 0.0 2.0 0.00 0.00 0.00 67 1016.9
20240304140503 35 243 0.0 3.0 0.00 0.00 0.00 68 1016.8
20240304140003 35 237 1.0 3.0 0.00 0.00 0.00 67 1016.8
20240304135502 35 230 1.0 3.0 0.00 0.00 0.00 67 1016.9
20240304135003 35 232 1.0 4.0 0.00 0.00 0.00 68 1016.8
20240304134503 35 257 1.0 4.0 0.00 0.00 0.00 68 1016.7
20240304134003 35 284 1.0 4.0 0.00 0.00 0.00 68 1016.5
20240304133503 35 271 1.0 4.0 0.00 0.00 0.00 68 1016.5
20240304133002 35 260 1.0 6.0 0.00 0.00 0.00 68 1016.5
20240304132503 35 259 2.0 6.0 0.00 0.00 0.00 68 1016.5
20240304132004 35 264 2.0 4.0 0.00 0.00 0.00 68 1016.4
20240304131503 35 270 2.0 4.0 0.00 0.00 0.00 68 1016.2
20240304131002 35 269 2.0 6.0 0.00 0.00 0.00 68 1016.2
20240304130524 35 263 1.0 6.0 0.00 0.00 0.00 68 1015.9
20240304130002 35 240 1.0 3.0 0.00 0.00 0.00 69 1015.9
20240304125502 35 237 1.0 5.0 0.00 0.00 0.00 68 1015.8
20240304125024 35 245 2.0 5.0 0.00 0.00 0.00 69 1015.7
20240304124503 35 261 2.0 6.0 0.00 0.00 0.00 69 1015.4
20240304124024 35 270 1.0 6.0 0.00 0.00 0.00 69 1015.3
20240304123523 35 269 0.0 3.0 0.00 0.00 0.00 69 1015.3
20240304123003 35 267 0.0 1.0 0.00 0.00 0.00 69 1014.8
20240304122524 35 265 1.0 3.0 0.00 0.00 0.00 70 1014.7
20240304122003 35 266 1.0 6.0 0.00 0.00 0.00 70 1014.5
20240304121503 35 269 1.0 6.0 0.00 0.00 0.00 69 1014.2
20240304121023 35 269 2.0 8.0 0.00 0.00 0.00 69 1014.1
20240304120503 35 271 3.0 8.0 0.00 0.00 0.00 69 1014.1
20240304120003 36 272 3.0 7.0 0.00 0.00 0.00 69 1014.0
20240304115503 36 268 2.0 7.0 0.00 0.00 0.00 70 1013.9
20240304115002 36 265 2.0 5.0 0.00 0.00 0.00 70 1013.9
20240304114524 36 274 1.0 4.0 0.00 0.00 0.00 70 1014.1
20240304114024 36 277 1.0 4.0 0.00 0.00 0.00 70 1014.2
20240304113503 36 276 1.0 2.0 0.00 0.00 0.00 71 1014.2
20240304113003 36 277 0.0 3.0 0.00 0.00 0.00 70 1014.2
20240304112502 36 259 0.0 3.0 0.00 0.00 0.00 70 1014.2
20240304112003 36 217 0.0 3.0 0.00 0.00 0.00 70 1014.2
20240304111503 36 205 1.0 2.0 0.00 0.00 0.00 71 1014.3
20240304111003 36 193 1.0 6.0 0.00 0.00 0.00 71 1014.1
20240304110503 35 184 2.0 7.0 0.00 0.00 0.00 71 1013.9
20240304110004 35 190 2.0 7.0 0.00 0.00 0.00 71 1013.9
20240304105502 36 224 1.0 4.0 0.00 0.00 0.00 71 1013.8
20240304105002 36 208 1.0 4.0 0.00 0.00 0.00 70 1013.5
20240304104503 36 230 1.0 4.0 0.00 0.00 0.00 70 1013.3
20240304104003 36 293 3.0 9.0 0.00 0.00 0.00 70 1012.8
20240304103503 36 289 4.0 10.0 0.00 0.00 0.00 70 1012.4
20240304103002 36 281 4.0 10.0 0.00 0.00 0.00 70 1012.5
20240304102503 36 278 2.0 7.0 0.00 0.00 0.00 71 1012.6
20240304102003 36 278 2.0 6.0 0.00 0.00 0.00 71 1012.8
20240304101503 36 280 2.0 7.0 0.00 0.00 0.00 71 1012.7
20240304101002 36 280 2.0 8.0 0.00 0.00 0.00 71 1012.5
20240304100502 36 274 2.0 8.0 0.00 0.00 0.00 71 1012.5
20240304100003 36 277 2.0 8.0 0.00 0.00 0.00 71 1012.3
20240304095503 36 281 2.0 8.0 0.00 0.00 0.00 71 1012.3
20240304095003 36 272 1.0 5.0 0.00 0.00 0.00 71 1012.0
20240304094503 36 252 1.0 4.0 0.00 0.00 0.00 72 1012.3
20240304094003 36 242 1.0 3.0 0.00 0.00 0.00 72 1012.1
20240304093502 36 215 1.0 3.0 0.00 0.00 0.00 72 1012.2
20240304093003 36 187 0.0 3.0 0.00 0.00 0.00 72 1012.0
20240304092504 36 179 0.0 2.0 0.00 0.00 0.00 72 1011.9
20240304092003 35 175 0.0 3.0 0.00 0.00 0.00 73 1011.8
20240304091503 35 183 1.0 3.0 0.00 0.00 0.00 73 1011.6
20240304091004 35 196 0.0 3.0 0.00 0.00 0.00 73 1011.5
20240304090504 36 189 0.0 2.0 0.00 0.00 0.00 73 1011.6
20240304090003 35 187 1.0 4.0 0.00 0.00 0.00 73 1011.9
20240304085503 35 197 0.0 4.0 0.00 0.00 0.00 74 1011.8
20240304085003 35 207 0.0 3.0 0.00 0.00 0.00 75 1012.0
20240304084503 34 207 0.0 3.0 0.00 0.00 0.00 76 1012.0
20240304084002 34 0 0.0 0.0 0.00 0.00 0.00 77 1011.5
20240304083502 34 0 0.0 0.0 0.00 0.00 0.00 77 1011.3
20240304083004 33 0 0.0 0.0 0.00 0.00 0.00 78 1011.4
20240304082503 33 0 0.0 0.0 0.00 0.00 0.00 77 1010.7
20240304082002 33 0 0.0 0.0 0.00 0.00 0.00 76 1010.3
20240304081502 33 0 0.0 0.0 0.00 0.00 0.00 76 1010.2
20240304081003 33 0 0.0 0.0 0.00 0.00 0.00 76 1010.1
20240304080503 33 0 0.0 0.0 0.00 0.00 0.00 76 1010.0
20240304080003 33 0 0.0 0.0 0.00 0.00 0.00 77 1010.5
20240304075503 33 0 0.0 0.0 0.00 0.00 0.00 76 1010.7
20240304075002 33 0 0.0 0.0 0.00 0.00 0.00 74 1010.9
20240304074503 34 0 0.0 0.0 0.00 0.00 0.00 74 1010.6
20240304074003 34 0 0.0 0.0 0.00 0.00 0.00 73 1010.8
20240304073503 35 0 0.0 0.0 0.00 0.00 0.00 72 1010.8
20240304073003 35 0 0.0 0.0 0.00 0.00 0.00 71 1010.7
20240304072524 36 0 0.0 0.0 0.00 0.00 0.00 70 1010.7
20240304072024 36 267 0.0 1.0 0.00 0.00 0.00 70 1010.7
20240304071503 36 266 0.0 3.0 0.00 0.00 0.00 69 1010.9
20240304071003 37 260 1.0 3.0 0.00 0.00 0.00 69 1010.8
20240304070503 37 245 0.0 3.0 0.00 0.00 0.00 69 1011.0
20240304070003 37 240 0.0 3.0 0.00 0.00 0.00 69 1011.1
20240304065503 37 256 0.0 3.0 0.00 0.00 0.00 69 1011.1
20240304065003 36 260 1.0 3.0 0.00 0.00 0.00 69 1011.2
20240304064503 37 263 1.0 2.0 0.00 0.00 0.00 68 1011.1
20240304064003 37 263 1.0 4.0 0.00 0.00 0.00 68 1010.7
20240304063503 37 247 1.0 4.0 0.00 0.00 0.00 68 1010.5
20240304063024 37 233 1.0 4.0 0.00 0.00 0.00 67 1010.5
20240304062503 38 227 0.0 2.0 0.00 0.00 0.00 67 1010.7
20240304062003 38 227 0.0 2.0 0.00 0.00 0.00 66 1010.5
20240304061503 38 230 1.0 3.0 0.00 0.00 0.00 66 1010.5
20240304061003 38 243 1.0 4.0 0.00 0.00 0.00 66 1010.6
20240304060503 38 249 2.0 4.0 0.00 0.00 0.00 65 1010.5
20240304060024 39 250 2.0 6.0 0.00 0.00 0.00 65 1010.4
20240304055503 39 255 2.0 7.0 0.00 0.00 0.00 65 1010.3
20240304055002 39 251 2.0 7.0 0.00 0.00 0.00 64 1010.2
20240304054503 39 249 2.0 7.0 0.00 0.00 0.00 64 1010.3
20240304054024 40 249 2.0 7.0 0.00 0.00 0.00 64 1010.2
20240304053503 40 248 2.0 9.0 0.00 0.00 0.00 64 1009.9
20240304053003 40 244 3.0 9.0 0.00 0.00 0.00 64 1009.6
20240304052503 40 244 2.0 6.0 0.00 0.00 0.00 64 1009.5
20240304052003 40 243 2.0 6.0 0.00 0.00 0.00 66 1009.4
20240304051503 40 236 2.0 8.0 0.00 0.00 0.00 66 1009.1
20240304051003 40 242 3.0 8.0 0.00 0.00 0.00 67 1009.3
20240304050503 40 232 3.0 7.0 0.00 0.00 0.00 68 1009.4
20240304050003 40 222 2.0 8.0 0.00 0.00 0.00 69 1009.3
20240304045502 40 220 2.0 8.0 0.00 0.00 0.00 71 1009.4
20240304045003 40 220 2.0 4.0 0.00 0.00 0.00 71 1009.1
20240304044524 40 221 2.0 4.0 0.00 0.00 0.00 71 1008.8
20240304044003 40 215 1.0 4.0 0.00 0.00 0.00 72 1008.7
20240304043504 40 209 1.0 4.0 0.00 0.00 0.00 72 1008.6
20240304043003 41 225 2.0 4.0 0.00 0.00 0.00 72 1008.4
20240304042503 41 232 2.0 7.0 0.00 0.00 0.00 72 1008.4
20240304042003 41 232 2.0 7.0 0.00 0.00 0.00 72 1008.5
20240304041503 41 241 1.0 5.0 0.00 0.00 0.00 72 1007.9
20240304041002 41 251 1.0 3.0 0.00 0.00 0.00 71 1007.2
20240304040503 41 261 1.0 3.0 0.00 0.00 0.00 71 1007.3
20240304040003 42 256 1.0 6.0 0.00 0.00 0.00 71 1007.5
20240304035503 42 239 2.0 8.0 0.00 0.00 0.00 71 1007.4
20240304035003 42 232 3.0 8.0 0.00 0.00 0.00 72 1007.3
20240304034502 42 233 2.0 8.0 0.00 0.00 0.00 73 1007.2
20240304034003 42 227 1.0 7.0 0.00 0.00 0.00 73 1007.1
20240304033524 42 220 2.0 6.0 0.00 0.00 0.00 73 1007.2
20240304033003 42 225 2.0 6.0 0.00 0.00 0.00 73 1007.0
20240304032503 42 227 2.0 6.0 0.00 0.00 0.00 73 1007.2
20240304032003 42 228 2.0 5.0 0.00 0.00 0.00 73 1007.1
20240304031524 42 228 2.0 6.0 0.00 0.00 0.00 72 1007.0
20240304031003 42 234 2.0 9.0 0.00 0.00 0.00 72 1006.8
20240304030524 42 232 2.0 9.0 0.00 0.00 0.00 72 1006.9
20240304030004 43 222 2.0 8.0 0.00 0.00 0.00 72 1006.8
20240304025504 43 224 2.0 8.0 0.00 0.00 0.00 71 1006.7
20240304025004 43 228 3.0 7.0 0.00 0.00 0.00 71 1006.6
20240304024503 43 229 3.0 8.0 0.00 0.00 0.00 70 1006.7
20240304024003 43 226 3.0 8.0 0.00 0.00 0.00 70 1006.5
20240304023524 43 224 2.0 7.0 0.00 0.00 0.00 69 1006.4
20240304023004 43 235 3.0 9.0 0.00 0.00 0.00 69 1006.2
20240304022524 43 241 3.0 9.0 0.00 0.00 0.00 69 1006.0
20240304022003 44 245 4.0 8.0 0.00 0.00 0.00 69 1005.9
20240304021504 44 247 4.0 13.0 0.00 0.00 0.00 69 1005.7
20240304021003 44 250 4.0 13.0 0.00 0.00 0.00 69 1005.4
20240304020503 44 257 4.0 9.0 0.00 0.00 0.00 68 1005.2
20240304020003 44 262 5.0 13.0 0.00 0.00 0.00 68 1005.1
20240304015523 45 262 6.0 15.0 0.00 0.00 0.00 67 1005.0
20240304015003 45 259 6.0 15.0 0.00 0.00 0.00 67 1004.9
20240304014503 45 258 6.0 15.0 0.00 0.00 0.00 67 1004.7
20240304014024 45 256 7.0 19.0 0.00 0.00 0.00 67 1004.6
20240304013503 46 255 6.0 19.0 0.00 0.00 0.00 67 1004.4
20240304013004 46 268 7.0 18.0 0.00 0.00 0.00 68 1004.3
20240304012504 46 267 8.0 19.0 0.00 0.00 0.00 68 1004.2
20240304012003 46 252 8.0 19.0 0.00 0.00 0.00 69 1004.1
20240304011503 46 250 7.0 19.0 0.00 0.00 0.00 69 1003.9
20240304011003 47 253 6.0 15.0 0.00 0.00 0.00 69 1003.5
20240304010523 47 249 6.0 17.0 0.00 0.00 0.00 70 1003.2
20240304010025 47 249 7.0 23.0 0.00 0.00 0.00 70 1003.0
20240304005503 47 251 7.0 23.0 0.00 0.00 0.00 70 1002.7
20240304005003 48 247 6.0 13.0 0.00 0.00 0.00 70 1002.7
20240304004503 48 249 6.0 21.0 0.00 0.00 0.00 70 1002.2
20240304004003 48 252 6.0 21.0 0.00 0.00 0.00 71 1001.9